CW5456 Weather Reports


Display with metric or nautical units.
time (UTC)temp
F
wind
direction
speed
MPH
gust
MPH
rain 1hr
in
rain 24hr
in
rain mn
in
humidity
%
barometer
mb
20170625221026 69 238 4.0 10.0 0.00 0.00 0.00 66 1009.9
20170625220026 68 232 0.0 9.0 0.00 0.00 0.00 67 1009.9
20170625215025 68 345 5.0 8.0 0.00 0.00 0.00 68 1010.0
20170625214022 68 249 4.0 10.0 0.00 0.00 0.00 67 1010.1
20170625213025 68 267 9.0 9.0 0.00 0.00 0.00 68 1010.2
20170625212021 67 253 2.0 10.0 0.00 0.00 0.00 69 1010.1
20170625211021 67 332 5.0 10.0 0.00 0.00 0.00 70 1010.2
20170625210024 67 299 4.0 10.0 0.00 0.00 0.00 70 1010.3
20170625205021 67 308 6.0 11.0 0.00 0.00 0.00 69 1010.4
20170625204023 67 276 7.0 10.0 0.00 0.00 0.00 69 1010.4
20170625203020 66 216 3.0 14.0 0.00 0.00 0.00 70 1010.6
20170625202019 66 271 5.0 12.0 0.00 0.00 0.00 69 1010.6
20170625201020 65 302 9.0 12.0 0.00 0.00 0.00 70 1010.7
20170625200022 65 303 8.0 11.0 0.00 0.00 0.00 70 1010.9
20170625195019 67 297 10.0 11.0 0.00 0.00 0.00 68 1010.9
20170625194021 67 252 4.0 8.0 0.00 0.00 0.00 67 1011.0
20170625193021 68 327 3.0 9.0 0.00 0.00 0.00 66 1011.1
20170625192018 68 332 4.0 9.0 0.00 0.00 0.00 67 1011.3
20170625191018 67 266 5.0 9.0 0.00 0.00 0.00 66 1011.4
20170625190017 68 284 3.0 8.0 0.00 0.00 0.00 65 1011.5
20170625185017 67 302 4.0 5.0 0.00 0.00 0.00 65 1011.5
20170625184019 67 307 3.0 8.0 0.00 0.00 0.00 67 1011.5
20170625183016 67 283 5.0 8.0 0.00 0.00 0.00 67 1011.6
20170625182019 66 262 4.0 7.0 0.00 0.00 0.00 68 1011.6
20170625181015 66 247 6.0 7.0 0.00 0.00 0.00 67 1011.7
20170625180016 66 275 4.0 8.0 0.00 0.00 0.00 68 1011.7
20170625175015 66 279 5.0 8.0 0.00 0.00 0.00 66 1011.8
20170625174017 65 305 5.0 10.0 0.00 0.00 0.00 68 1011.9
20170625173015 64 243 4.0 9.0 0.00 0.00 0.00 68 1012.0
20170625172017 65 298 5.0 8.0 0.00 0.00 0.00 66 1012.0
20170625171017 64 277 3.0 8.0 0.00 0.00 0.00 66 1012.1
20170625170016 64 276 5.0 9.0 0.00 0.00 0.00 66 1012.2
20170625165013 63 299 0.0 8.0 0.00 0.00 0.00 69 1012.3
20170625164013 63 341 2.0 10.0 0.00 0.00 0.00 66 1012.5
20170625163012 63 264 7.0 9.0 0.00 0.00 0.00 66 1012.5
20170625162015 64 327 4.0 11.0 0.00 0.00 0.00 64 1012.6
20170625161012 65 254 7.0 11.0 0.00 0.00 0.00 62 1012.6
20170625160011 64 278 8.0 9.0 0.00 0.00 0.00 66 1012.6
20170625155011 63 248 6.0 7.0 0.00 0.00 0.00 68 1012.6
20170625154011 64 267 3.0 6.0 0.00 0.00 0.00 67 1012.6
20170625153011 65 275 0.0 3.0 0.00 0.00 0.00 67 1012.6
20170625152010 65 274 0.0 5.0 0.00 0.00 0.00 68 1012.6
20170625151010 65 272 4.0 7.0 0.00 0.00 0.00 65 1012.6
20170625150010 64 274 5.0 7.0 0.00 0.00 0.00 69 1012.8
20170625145010 62 332 0.0 1.0 0.00 0.00 0.00 75 1012.8
20170625144009 61 332 0.0 9.0 0.00 0.00 0.00 74 1012.9
20170625143009 60 297 4.0 7.0 0.00 0.00 0.00 75 1012.9
20170625142012 60 299 2.0 7.0 0.00 0.00 0.00 74 1012.9
20170625141008 60 358 3.0 7.0 0.00 0.00 0.00 75 1013.0
20170625140011 59 337 1.0 9.0 0.00 0.00 0.00 75 1013.1
20170625135008 60 298 5.0 10.0 0.00 0.00 0.00 74 1012.9
20170625134007 60 293 9.0 11.0 0.00 0.00 0.00 73 1013.0
20170625133007 61 287 8.0 9.0 0.00 0.00 0.00 72 1013.0
20170625132007 61 295 5.0 6.0 0.00 0.00 0.00 71 1012.8
20170625131007 61 289 4.0 8.0 0.00 0.00 0.00 71 1012.9
20170625130006 61 276 4.0 9.0 0.00 0.00 0.00 71 1012.9
20170625125006 60 269 3.0 8.0 0.00 0.00 0.00 73 1012.9
20170625124005 60 327 5.0 8.0 0.00 0.00 0.00 74 1012.9
20170625123005 60 274 3.0 11.0 0.00 0.00 0.00 74 1012.9
20170625122005 59 268 2.0 8.0 0.00 0.00 0.00 76 1013.0
20170625121004 59 260 2.0 11.0 0.00 0.00 0.00 76 1012.9
20170625120005 59 254 4.0 9.0 0.00 0.00 0.00 76 1013.0
20170625115007 60 318 1.0 11.0 0.00 0.00 0.00 74 1012.9
20170625114004 60 263 8.0 11.0 0.00 0.00 0.00 74 1013.1
20170625113004 60 261 2.0 11.0 0.00 0.00 0.00 75 1013.1
20170625112003 60 274 0.0 7.0 0.00 0.00 0.00 75 1013.1
20170625111003 60 272 7.0 8.0 0.00 0.00 0.00 75 1013.0
20170625110002 60 270 5.0 7.0 0.00 0.00 0.00 74 1013.0
20170625105005 60 264 3.0 7.0 0.00 0.00 0.00 73 1013.1
20170625104002 60 327 3.0 5.0 0.00 0.00 0.00 72 1013.0
20170625103002 60 327 3.0 5.0 0.00 0.00 0.00 73 1013.1
20170625102001 60 247 0.0 0.0 0.00 0.00 0.00 74 1013.2
20170625101001 60 247 0.0 1.0 0.00 0.00 0.00 73 1013.1
20170625100001 60 247 0.0 1.0 0.00 0.00 0.00 72 1013.0
20170625095000 60 247 1.0 1.0 0.00 0.00 0.00 72 1013.0
20170625094001 60 247 0.0 2.0 0.00 0.00 0.00 71 1013.1
20170625093002 61 247 0.0 1.0 0.00 0.00 0.00 71 1013.2
20170625092002 61 247 0.0 4.0 0.00 0.00 0.00 69 1013.3
20170625090959 62 247 3.0 6.0 0.00 0.00 0.00 69 1013.3
20170625085958 61 337 3.0 6.0 0.00 0.00 0.00 70 1013.3
20170625085001 61 249 2.0 3.0 0.00 0.00 0.00 72 1013.4
20170625083958 60 249 2.0 6.0 0.00 0.00 0.00 72 1013.4
20170625083001 60 332 0.0 3.0 0.00 0.00 0.00 74 1013.4
20170625081957 60 332 1.0 4.0 0.00 0.00 0.00 75 1013.4
20170625080957 59 202 0.0 2.0 0.00 0.00 0.00 76 1013.5
20170625075957 59 202 0.0 2.0 0.00 0.00 0.00 78 1013.5
20170625074959 59 197 0.0 3.0 0.00 0.00 0.00 77 1013.6
20170625073957 60 197 0.0 4.0 0.00 0.00 0.00 76 1013.7
20170625072956 60 197 2.0 4.0 0.00 0.00 0.00 75 1013.8
20170625071959 61 224 3.0 3.0 0.00 0.00 0.00 74 1013.8
20170625070956 62 224 2.0 3.0 0.00 0.00 0.00 72 1013.8
20170625070025 63 266 1.0 2.0 0.00 0.00 0.00 70 1013.8
20170625065028 63 266 0.0 1.0 0.00 0.00 0.00 67 1013.8
20170625064024 63 266 0.0 1.0 0.00 0.00 0.00 66 1013.9
20170625063024 63 266 0.0 1.0 0.00 0.00 0.00 67 1013.9
20170625062024 64 266 0.0 1.0 0.00 0.00 0.00 66 1014.0
20170625061023 64 266 0.0 2.0 0.00 0.00 0.00 65 1014.0
20170625060027 64 266 0.0 3.0 0.00 0.00 0.00 64 1014.0
20170625055026 64 266 0.0 3.0 0.00 0.00 0.00 64 1014.0
20170625054022 64 262 0.0 6.0 0.00 0.00 0.00 64 1014.0
20170625053023 64 276 0.0 6.0 0.00 0.00 0.00 65 1014.0
20170625052022 64 270 1.0 5.0 0.00 0.00 0.00 65 1014.1
20170625051022 64 241 3.0 5.0 0.00 0.00 0.00 65 1014.1
20170625050022 64 294 0.0 7.0 0.00 0.00 0.00 65 1014.1
20170625045021 64 247 7.0 7.0 0.00 0.00 0.00 64 1014.1
20170625044021 65 277 0.0 3.0 0.00 0.00 0.00 63 1014.1
20170625043020 66 276 0.0 3.0 0.00 0.00 0.00 62 1014.1
20170625042020 66 276 3.0 5.0 0.00 0.00 0.00 61 1014.0
20170625041020 67 262 3.0 7.0 0.00 0.00 0.00 60 1014.0
20170625040022 67 298 4.0 7.0 0.00 0.00 0.00 59 1014.0
20170625035022 66 265 7.0 7.0 0.00 0.00 0.00 62 1014.1
20170625034019 66 233 2.0 2.0 0.00 0.00 0.00 62 1014.1
20170625033018 67 233 2.0 3.0 0.00 0.00 0.00 61 1014.1
20170625032018 67 233 1.0 4.0 0.00 0.00 0.00 60 1014.2
20170625031021 67 268 3.0 8.0 0.00 0.00 0.00 60 1014.3
20170625030018 67 332 8.0 8.0 0.00 0.00 0.00 60 1014.4
20170625025018 67 307 4.0 7.0 0.00 0.00 0.00 59 1014.5
20170625024017 67 349 2.0 8.0 0.00 0.00 0.00 59 1014.6
20170625023017 67 337 4.0 8.0 0.00 0.00 0.00 60 1014.6
20170625022016 67 332 5.0 7.0 0.00 0.00 0.00 60 1014.6
20170625021019 67 358 3.0 8.0 0.00 0.00 0.00 61 1014.7
20170625020016 67 267 7.0 8.0 0.00 0.00 0.00 60 1014.8
20170625015016 68 270 5.0 10.0 0.00 0.00 0.00 59 1014.9
20170625014018 69 341 4.0 10.0 0.00 0.00 0.00 58 1014.9
20170625013015 69 310 3.0 9.0 0.00 0.00 0.00 59 1015.0
20170625012014 69 252 7.0 9.0 0.00 0.00 0.00 59 1015.2
20170625011019 69 210 0.0 4.0 0.00 0.00 0.00 60 1015.3
20170625010014 69 206 0.0 5.0 0.00 0.00 0.00 60 1015.4
20170625005014 70 262 1.0 7.0 0.00 0.00 0.00 59 1015.6
20170625004014 70 256 0.0 9.0 0.00 0.00 0.00 59 1015.8
20170625003013 69 225 4.0 10.0 0.00 0.00 0.00 61 1015.8
20170625002013 70 231 7.0 17.0 0.00 0.00 0.00 58 1015.9
20170625001012 69 259 8.0 14.0 0.00 0.00 0.00 59 1016.1
20170625000012 69 224 4.0 16.0 0.00 0.00 0.00 61 1016.2
20170624235015 68 232 11.0 17.0 0.00 0.00 0.00 63 1016.3
20170624234011 67 253 4.0 9.0 0.00 0.00 0.00 65 1016.4
20170624233012 67 342 4.0 12.0 0.00 0.00 0.00 67 1016.6
20170624232011 66 337 11.0 14.0 0.00 0.00 0.00 67 1016.7
20170624231011 66 332 6.0 11.0 0.00 0.00 0.00 69 1016.9
20170624230011 65 241 7.0 10.0 0.00 0.00 0.00 70 1017.0
20170624225012 65 261 5.0 11.0 0.00 0.00 0.00 70 1017.1
20170624224010 66 299 5.0 10.0 0.00 0.00 0.00 69 1017.2
20170624223010 66 287 5.0 10.0 0.00 0.00 0.00 71 1017.3
20170624222009 65 275 4.0 9.0 0.00 0.00 0.00 72 1017.4